Вернуться в каталог

CZ-6A DEB

АктивенPO
NORAD 60654·DEBRIS·🇨🇳 China

Запущен Aug 6, 2024 с Taiyuan Satellite Launch Center

Loading…

Ближайшие Пролёты (ближайшие 24 часа)

TLE

СвежийSource: Space-Track

Эпоха: Sep 14, 2026, 10:49 UTC

1 60654U 24140BF  26257.45088181  .00004973  00000-0  61571-3 0  9995
2 60654  88.9713 255.0453 0133080 264.5912  94.0116 14.76433857112549

Отслеживайте CZ-6A DEB в реальном времени с AllMySat

Download on the App Store